Location: Orient Land Trust / Valley View Hot Springs
(38.1923°N, 105.8154°W)
Time: 08:38:29
(UTC-06:00)

Hubble Space Telescope - Visible Passes

Search period start: 27 September 2020 00:00
Search period end: 07 October 2020 00:00
Orbit: 536 x 540 km, 28.5° (Epoch: 26 September)

Date Brightness Start Highest point End Pass type
(mag) Time Alt. Az. Time Alt. Az. Time Alt. Az.
27 Sep 3.5 04:41:05 11° SE 04:41:05 11° SE 04:41:33 10° SE visible
27 Sep 2.7 06:17:21 10° SW 06:20:24 20° S 06:23:26 10° SE visible
28 Sep 3.6 04:31:03 11° SE 04:31:03 11° SE 04:31:14 10° SE visible
28 Sep 2.6 06:06:29 10° SW 06:09:35 21° S 06:12:41 10° SE visible
29 Sep 2.5 05:56:19 13° SW 05:58:45 21° S 06:01:52 10° SE visible
30 Sep 2.5 05:46:15 16° SW 05:47:56 20° S 05:51:01 10° SE visible
01 Oct 2.4 05:36:12 18° SSW 05:37:07 20° S 05:40:08 10° SE visible
02 Oct 2.5 05:26:11 19° S 05:26:17 19° S 05:29:11 10° SE visible
03 Oct 2.8 05:16:12 17° S 05:16:12 17° S 05:18:11 10° SSE visible
04 Oct 3.2 05:06:16 13° SSE 05:06:16 13° SSE 05:07:06 10° SSE visible
